Regional Weather Roundup
Issued by NWS

Home | Current Version | Previous Version | Text Only | Print | Product List | Glossary Off
Versions: 1 2 3 4 5 6 7 8 9 10 11 12 13 14 15 16 17 18 19 20 21 22 23 24 25 26 27 28 29 30 31 32 33 34 35 36 37 38 39 40 41 42 43 44 45 46 47 48 49 50

000
ASUS43 KFSD 110710
RWRSD

WEATHER ROUNDUP FOR SOUTH DAKOTA
NATIONAL WEATHER SERVICE SIOUX FALLS SD
100 AM CST MON DEC 11 2017

NOTE: "FAIR" INDICATES FEW OR NO CLOUDS BELOW 12,000 FEET WITH NO
SIGNIFICANT WEATHER AND/OR OBSTRUCTIONS TO VISIBILITY.


SDZ001>005-009-010-012>017-110800-
NORTHWEST AND NORTH CENTRAL SOUTH DAKOTA

CITY           SKY/WX    TMP DP  RH WIND       PRES   REMARKS
BUFFALO          N/A     45  18  34 W33G41    30.05R
FAITH            N/A     45  16  31 NW28G35   30.03F
MOBRIDGE       CLEAR     38  22  52 NW9       29.89F
$$

SDZ012>016-024>037-041>051-057-063-072>074-110800-
SOUTHWEST AND SOUTH CENTRAL SOUTH DAKOTA

CITY           SKY/WX    TMP DP  RH WIND       PRES   REMARKS
RAPID CTY ARPT CLOUDY    54  12  18 NW38G46   30.13R
PIERRE         CLOUDY    45  22  40 W24       29.98S
CUSTER         CLOUDY    44   8  23 NW17G32   30.17R
ELLSWORTH AFB  CLOUDY    53  13  20 NW35G43   30.11R
PHILIP         CLOUDY    50  17  27 NW29G35   30.06S
PINE RIDGE     CLEAR     41  17  38 W8        30.17R
SPEARFISH      FAIR      48  16  27 W16G24    30.20S
WINNER         FAIR      46  16  30 W14       30.01S
$$

SDZ004>011-016>023-039-040-110800-
NORTHEAST SOUTH DAKOTA

CITY           SKY/WX    TMP DP  RH WIND       PRES   REMARKS
ABERDEEN       CLOUDY    42  27  55 W13       29.86F
WATERTOWN      CLOUDY    38  27  64 W14       29.85F
BROOKINGS      CLOUDY    36  27  69 W10       29.89F
SISSETON         N/A     42  27  55 NW14G21   29.78F
$$

SDZ017-020-022-023-036>040-048>070-110800-
SOUTHEAST SOUTH DAKOTA

CITY           SKY/WX    TMP DP  RH WIND       PRES   REMARKS
SIOUX FALLS    CLOUDY    36  28  73 MISG      29.93R
HURON          PTCLDY    36  26  67 MISG      29.90F
CHAMBERLAIN    CLEAR     42  21  42 W13       29.98S
MITCHELL       CLOUDY    37  26  64 W9        29.94F
YANKTON        CLOUDY    43  23  45 W13       29.95R
$$

ABBREVIATIONS USED IN REMARKS
   TC - TEMPERATURE IN CELSIUS
  WCI - WIND CHILL INDEX
   HX - HEAT INDEX
  VSB - VISIBILITY




USA.gov is the U.S. government's official web portal to all federal, state and local government web resources and services.